Temp
73 74 74 72 72 71 70 71 71 73 74 74 73 73 73 73 74 75 75 74 74 75 74 74 74 75 75 75 74 74 75 75 75 75 74 74 74 74 74 74 73 73 73 74 73 73 73 74 74 73 74 74 74 72 74 77 80 79 78 77 75 74
73 73 72 72 73 71 70 71 71 71 73 73 73 74 74 74 75 74 74 74 74 72 73 74 74 76 74 75 74 74 75 75 74 74 74 74 74 73 73 73 73 73 73 73 73 72 73 74 74 74 74 73 72 73 76 78 80 80 78 76 74 73
73 72 72 74 73 71 71 72 72 72 73 73 73 74 74 74 74 74 74 73 72 71 71 72 73 75 75 75 75 74 75 75 74 74 74 74 73 73 73 72 73 73 73 73 72 73 75 75 73 75 74 73 72 75 78 79 79 79 78 76 74 74
74 73 74 74 71 71 71 71 70 72 73 71 72 74 74 74 74 73 71 71 70 72 72 71 76 77 77 74 74 74 74 74 74 74 74 73 73 73 73 73 72 73 73 74 73 75 77 78 75 73 72 72 74 77 79 78 79 79 77 77 75 74
75 75 74 73 72 72 72 71 69 69 72 70 72 73 73 73 72 72 71 70 70 72 72 71 72 72 71 72 73 73 73 73 73 73 73 73 72 73 72 73 73 72 72 74 75 76 76 78 76 77 75 76 77 79 79 78 77 79 77 75 73 74
75 75 73 73 73 74 72 70 69 69 71 73 72 72 70 71 71 71 70 70 70 70 71 70 71 71 71 70 71 70 73 72 73 72 73 72 72 73 73 74 74 74 73 74 74 75 77 77 77 77 77 77 78 80 79 78 76 76 74 73 72 74
73 74 74 75 75 74 74 72 72 72 71 71 72 69 68 71 72 72 71 70 69 69 68 69 68 68 70 71 72 72 71 71 71 70 71 69 71 71 71 70 69 69 68 69 72 73 72 74 78 80 79 80 80 79 77 71 75 76 74 73 73 73
74 74 74 76 75 75 74 71 70 72 73 74 74 71 70 71 73 71 70 69 70 68 68 68 69 69 69 72 70 71 71 71 71 71 71 71 71 70 70 69 68 68 69 70 70 69 67 69 73 79 79 78 79 78 78 72 71 76 73 73 73 73
73 75 74 75 76 75 74 73 73 73 73 76 74 71 72 72 71 71 70 69 69 67 69 70 69 70 69 70 69 68 70 70 71 71 71 71 70 70 69 69 68 69 68 69 67 67 67 68 67 71 78 80 79 80 78 75 74 75 74 73 73 72
72 73 73 75 74 74 73 72 74 75 72 74 73 72 72 70 70 69 68 68 69 68 69 70 69 70 68 69 68 69 70 71 70 69 69 70 70 70 69 68 68 68 69 67 66 67 67 68 69 73 76 78 78 79 76 75 75 74 74 74 73 71
72 70 73 75 74 73 74 74 74 74 74 74 73 72 71 70 69 69 68 69 69 68 67 69 70 71 68 69 67 67 67 68 68 69 69 70 70 69 68 68 69 68 67 67 67 68 68 67 69 71 75 80 77 77 73 70 74 73 74 74 73 72
73 72 74 75 72 73 74 75 74 74 74 74 74 73 71 69 69 70 70 69 68 67 68 69 70 71 70 68 66 67 67 67 68 70 71 70 69 68 68 69 70 69 68 67 66 66 68 68 70 71 72 72 70 78 76 70 71 71 75 75 74 72
73 72 73 73 73 75 75 75 74 74 74 74 73 73 70 69 69 70 69 69 68 67 67 67 69 71 71 68 68 68 68 69 71 71 71 71 71 69 69 69 69 70 67 67 67 67 68 67 68 68 70 70 65 73 74 73 71 71 75 75 74 73
72 73 72 72 72 74 75 75 75 75 75 75 74 74 72 71 72 70 69 69 68 68 66 67 71 71 71 70 69 70 70 71 72 71 71 70 70 69 68 69 69 68 69 68 67 67 67 67 68 68 67 71 70 68 73 74 72 74 75 74 73 73
72 71 72 71 72 75 75 75 76 75 75 75 75 76 75 74 73 73 69 69 70 71 71 72 72 71 71 71 69 68 71 72 72 71 71 69 68 67 68 69 69 69 68 68 68 68 67 66 66 66 66 67 67 69 69 67 73 73 71 71 70 72
71 70 71 71 72 73 73 74 75 76 74 75 76 77 75 75 76 76 76 75 76 75 75 74 73 72 71 71 71 68 71 72 71 71 70 69 69 68 67 68 68 67 65 67 68 67 67 66 66 66 67 67 66 65 67 67 67 69 71 71 72 70
69 70 69 70 71 72 72 73 74 75 76 76 76 76 76 76 76 75 73 72 74 74 75 74 73 73 71 72 70 71 70 72 71 71 69 69 69 69 69 69 68 68 68 67 68 68 67 66 66 66 66 68 66 67 65 67 66 65 67 67 69 69
70 68 67 68 69 70 71 73 74 75 76 77 77 77 77 78 77 76 76 75 74 74 74 73 73 73 71 71 70 70 70 71 70 69 68 69 69 70 69 69 68 68 68 67 66 65 66 66 66 66 66 66 67 67 66 65 66 66 65 67 66 68
67 68 68 68 69 70 71 74 75 76 76 76 77 77 78 78 77 76 76 75 76 75 74 73 73 73 71 71 71 70 68 69 69 68 68 69 69 70 69 69 69 68 68 67 65 66 65 65 65 65 65 67 68 67 67 67 68 67 66 66 67 69
69 70 70 70 69 68 71 74 74 75 76 76 77 77 77 77 77 76 77 76 76 75 76 74 74 73 72 71 71 70 68 69 68 68 68 68 68 69 68 68 68 69 67 66 67 65 64 64 64 65 64 66 67 66 68 67 69 67 65 66 66 66
71 73 71 74 73 73 73 73 73 74 74 75 76 76 77 77 76 76 77 79 77 76 76 75 75 74 73 73 71 70 70 69 68 68 68 68 69 70 69 69 68 67 66 65 65 66 65 64 64 63 65 66 65 67 67 69 67 68 69 67 65 66
71 72 73 73 73 74 75 74 73 74 74 75 76 75 74 74 75 76 75 75 75 75 75 74 74 74 73 72 70 69 69 70 69 69 69 69 70 70 70 69 68 66 67 66 64 66 65 66 62 62 61 62 63 65 67 68 68 69 70 70 66 64
71 72 72 72 72 70 73 74 73 74 75 76 78 77 77 76 76 77 75 75 75 75 75 75 75 75 75 74 72 69 69 70 70 71 69 68 68 69 68 66 67 66 64 66 64 67 66 67 63 64 63 62 58 59 62 65 67 68 69 68 67 64
71 71 70 70 69 69 70 72 73 75 75 74 73 74 74 75 75 76 75 76 75 74 76 76 78 78 75 74 74 72 72 69 69 71 70 69 69 68 68 67 66 67 67 64 65 65 68 67 66 63 59 60 59 60 57 59 62 65 68 69 68 66
70 69 69 68 68 68 68 70 73 73 73 73 73 73 72 72 74 74 74 74 74 76 76 76 75 76 76 73 73 73 72 72 70 70 71 70 70 70 70 69 69 67 66 65 64 65 66 67 67 67 62 59 57 57 58 61 62 62 67 64 66 65
68 68 68 67 66 66 65 66 70 69 66 67 67 70 69 69 71 71 72 74 76 76 76 76 75 75 75 74 73 73 74 73 71 70 69 69 70 69 70 70 69 68 67 67 65 63 63 66 67 66 67 64 62 59 60 62 62 56 64 65 65 66
66 66 66 65 65 65 65 66 68 70 70 69 69 69 71 71 71 72 73 73 74 75 76 74 74 74 74 74 73 74 74 73 73 71 71 70 71 71 73 73 70 68 67 68 66 64 64 65 67 65 67 66 65 65 65 63 58 60 55 61 64 64
64 64 65 65 65 65 65 64 66 70 69 69 70 70 71 71 72 73 72 72 73 73 75 75 74 75 75 74 73 73 73 72 73 74 73 71 70 71 71 72 70 71 70 68 66 64 63 64 63 64 65 64 66 67 68 68 67 62 60 56 58 63
65 65 64 65 65 65 65 65 67 70 70 70 71 71 71 72 71 72 71 72 73 74 73 74 75 75 74 75 73 72 72 73 73 74 75 74 72 72 70 69 69 69 68 68 68 67 66 65 66 63 64 65 65 66 66 64 64 63 60 60 57 58
64 64 65 65 65 65 66 66 67 69 70 69 71 71 71 70 71 71 71 71 71 71 72 73 72 73 73 75 74 73 73 72 71 72 73 73 71 70 69 69 69 69 69 68 68 68 66 66 66 67 66 66 64 64 64 63 61 63 63 63 59 57
64 64 65 65 66 66 67 69 70 71 70 70 70 70 69 69 70 70 70 70 71 71 71 70 71 71 71 73 72 72 71 71 72 71 72 72 70 71 70 69 70 69 69 68 67 67 67 67 67 65 66 67 65 64 62 61 60 61 60 60 60 60
66 65 65 66 67 67 69 70 71 71 71 70 71 70 69 68 69 70 70 70 70 70 70 71 70 70 70 71 71 69 70 71 70 70 70 70 70 71 70 70 69 68 68 68 68 68 67 66 67 66 66 66 66 65 64 65 64 64 61 60 62 61
65 65 66 67 67 68 69 70 71 71 71 71 71 71 70 69 70 69 70 70 69 69 69 69 69 69 70 70 70 69 69 68 69 69 69 71 70 70 69 69 69 68 67 67 66 67 65 65 66 66 66 68 68 68 67 68 67 64 64 64 64 61
65 66 67 67 68 68 69 70 71 71 71 71 70 70 70 70 71 71 71 70 70 69 69 68 68 69 70 70 69 69 69 69 69 69 69 69 69 69 69 71 69 67 67 67 67 66 66 66 65 66 67 66 66 67 67 69 67 67 65 65 64 64
66 67 67 68 69 69 70 70 71 72 71 71 71 71 71 71 71 71 71 71 71 70 68 69 69 69 69 68 68 69 69 68 69 69 69 68 70 68 68 69 68 66 66 67 67 66 65 66 67 67 65 65 66 65 65 68 66 66 70 68 67 65
67 67 67 68 69 70 70 71 71 71 71 71 71 72 71 72 72 72 71 71 71 70 70 69 69 69 69 68 68 68 68 68 69 70 69 69 68 68 67 66 66 66 66 71 66 66 65 66 65 65 65 66 66 66 67 68 69 66 68 67 68 66
67 68 68 69 70 71 71 71 71 71 71 71 70 71 70 71 71 72 72 72 71 70 70 69 70 70 68 69 69 68 68 68 68 68 68 68 68 68 67 67 66 65 65 66 66 67 65 65 65 65 65 66 65 65 66 66 67 67 68 67 67 66
MSLP
1013.36 1013.24 1013.40 1014.00 1014.16 1014.32 1014.32 1014.36 1014.92 1015.00 1015.08 1015.24 1015.48 1015.68 1015.80 1015.88 1016.00 1016.12 1016.20 1016.24 1016.20 1016.20 1016.32 1016.40 1016.44 1016.44 1016.56 1016.72 1016.84 1016.92 1016.96 1016.92 1017.00 1017.04 1017.08 1017.16 1017.24 1017.32 1017.40 1017.40 1017.40 1017.32 1017.36 1017.40 1017.44 1017.44 1017.44 1017.44 1017.48 1017.48 1017.44 1017.32 1017.16 1017.16 1016.88 1016.64 1016.36 1016.48 1017.04 1017.36 1017.60 1017.88
1013.16 1013.16 1013.40 1013.80 1013.84 1014.08 1014.52 1014.92 1015.12 1015.12 1015.20 1015.40 1015.56 1015.72 1015.84 1015.96 1016.12 1016.28 1016.32 1016.28 1016.32 1016.40 1016.44 1016.48 1016.48 1016.48 1016.64 1016.76 1016.92 1016.96 1016.96 1017.00 1017.08 1017.12 1017.16 1017.24 1017.28 1017.36 1017.40 1017.44 1017.44 1017.40 1017.40 1017.44 1017.52 1017.52 1017.40 1017.36 1017.40 1017.44 1017.44 1017.40 1017.40 1017.20 1016.92 1016.56 1016.40 1016.56 1017.16 1017.40 1017.68 1018.04
1013.12 1013.04 1013.36 1013.60 1013.72 1014.20 1014.72 1015.00 1015.20 1015.20 1015.24 1015.48 1015.84 1015.80 1015.84 1016.04 1016.24 1016.40 1016.44 1016.52 1016.52 1016.60 1016.64 1016.64 1016.64 1016.68 1016.80 1016.88 1016.92 1017.00 1017.08 1017.12 1017.16 1017.20 1017.24 1017.32 1017.40 1017.44 1017.44 1017.48 1017.44 1017.48 1017.48 1017.52 1017.52 1017.48 1017.32 1017.20 1017.24 1017.28 1017.36 1017.40 1017.40 1017.20 1016.84 1016.60 1016.52 1016.72 1017.28 1017.56 1017.88 1018.12
1013.08 1013.20 1013.44 1013.60 1013.96 1014.48 1014.84 1015.12 1015.24 1015.04 1015.20 1015.76 1015.88 1015.80 1015.92 1016.12 1016.40 1016.60 1016.68 1016.72 1016.64 1016.64 1016.64 1016.80 1016.80 1016.84 1016.88 1016.96 1017.08 1017.16 1017.24 1017.28 1017.28 1017.36 1017.36 1017.44 1017.52 1017.48 1017.48 1017.44 1017.44 1017.48 1017.52 1017.52 1017.48 1017.40 1017.32 1017.04 1017.04 1017.16 1017.32 1017.32 1017.28 1017.00 1016.84 1016.72 1016.64 1016.88 1017.32 1017.72 1018.04 1018.20
1013.00 1013.28 1013.48 1013.72 1014.04 1014.40 1014.80 1015.24 1015.16 1015.08 1015.24 1015.84 1015.96 1015.92 1016.04 1016.28 1016.56 1016.60 1016.64 1016.64 1016.60 1016.64 1016.76 1016.92 1017.00 1017.00 1017.04 1017.12 1017.24 1017.36 1017.44 1017.44 1017.44 1017.52 1017.44 1017.52 1017.60 1017.56 1017.52 1017.44 1017.40 1017.40 1017.48 1017.48 1017.44 1017.24 1017.20 1016.96 1016.88 1016.92 1017.08 1017.12 1017.00 1016.88 1016.72 1016.72 1016.80 1017.00 1017.40 1017.72 1018.08 1018.24
1012.92 1013.16 1013.56 1013.76 1014.04 1014.28 1014.80 1015.36 1015.24 1015.36 1015.44 1015.56 1015.76 1016.00 1016.28 1016.48 1016.52 1016.60 1016.60 1016.60 1016.52 1016.68 1016.96 1017.00 1017.04 1017.16 1017.40 1017.52 1017.52 1017.56 1017.48 1017.52 1017.52 1017.60 1017.52 1017.64 1017.60 1017.48 1017.44 1017.24 1017.28 1017.44 1017.52 1017.52 1017.48 1017.44 1017.24 1016.96 1016.88 1016.80 1016.84 1016.76 1016.72 1016.68 1016.68 1016.80 1017.12 1017.32 1017.64 1017.92 1018.16 1018.20
1012.92 1013.24 1013.68 1013.68 1013.92 1014.24 1014.64 1015.04 1015.12 1015.28 1015.52 1015.60 1015.84 1016.56 1016.72 1016.36 1016.40 1016.48 1016.52 1016.44 1016.52 1016.88 1017.08 1017.08 1017.12 1017.32 1017.60 1017.64 1017.60 1017.56 1017.64 1017.60 1017.64 1017.64 1017.64 1017.84 1017.76 1017.64 1017.56 1017.56 1017.60 1017.60 1017.72 1017.88 1017.80 1017.92 1018.20 1017.80 1016.96 1016.88 1016.68 1016.72 1016.72 1016.80 1016.96 1017.96 1017.40 1017.48 1017.68 1017.92 1018.20 1018.20
1013.16 1013.32 1013.68 1013.68 1013.84 1014.16 1014.48 1015.08 1015.60 1015.48 1015.36 1015.32 1015.68 1016.32 1016.32 1016.32 1016.20 1016.28 1016.36 1016.32 1016.52 1016.64 1016.92 1017.28 1017.44 1017.44 1017.44 1017.44 1017.60 1017.52 1017.56 1017.64 1017.72 1017.72 1017.68 1017.72 1017.76 1017.76 1017.64 1017.60 1017.68 1017.72 1017.76 1017.88 1017.92 1017.80 1017.96 1018.80 1018.44 1017.12 1016.92 1016.72 1016.68 1016.76 1016.88 1017.24 1017.40 1017.52 1017.76 1018.00 1018.24 1018.40
1013.24 1013.36 1013.56 1013.52 1013.80 1014.04 1014.36 1014.76 1015.20 1015.40 1015.32 1015.20 1015.52 1015.88 1015.96 1016.08 1016.24 1016.00 1016.16 1016.56 1016.68 1016.80 1016.88 1017.12 1017.48 1017.56 1017.68 1017.72 1017.76 1017.76 1017.76 1017.76 1017.68 1017.64 1017.60 1017.68 1017.68 1017.64 1017.60 1017.56 1017.68 1017.76 1017.88 1018.04 1017.92 1017.84 1017.80 1018.48 1018.72 1018.24 1017.16 1016.84 1016.68 1016.72 1016.96 1017.44 1017.40 1017.68 1017.84 1018.04 1018.20 1018.40
1013.76 1013.64 1013.56 1013.52 1013.80 1014.16 1014.44 1014.68 1014.88 1015.00 1015.28 1015.36 1015.64 1015.88 1016.08 1016.32 1016.20 1016.12 1016.08 1016.20 1016.80 1016.84 1016.80 1017.20 1017.48 1017.52 1017.92 1017.88 1018.04 1017.88 1017.68 1017.56 1017.60 1017.52 1017.56 1017.68 1017.52 1017.56 1017.72 1017.80 1017.84 1017.84 1017.88 1018.16 1018.32 1018.40 1018.40 1018.08 1018.40 1018.24 1017.64 1017.28 1016.84 1016.72 1017.00 1017.52 1017.52 1017.60 1017.84 1017.96 1018.16 1018.44
1014.08 1014.44 1013.72 1013.64 1013.84 1014.20 1014.28 1014.56 1014.76 1015.00 1015.28 1015.36 1015.56 1015.84 1016.24 1016.44 1016.52 1016.48 1016.40 1016.32 1016.76 1016.60 1016.48 1017.12 1017.40 1017.56 1017.68 1017.68 1017.88 1018.16 1017.80 1017.64 1017.76 1017.56 1017.44 1017.56 1017.56 1017.64 1017.68 1017.84 1018.04 1018.00 1018.04 1018.20 1018.20 1018.24 1018.36 1018.20 1018.16 1018.16 1017.72 1017.20 1017.20 1016.68 1017.64 1017.68 1017.44 1017.60 1017.88 1017.96 1018.28 1018.56
1013.84 1014.04 1013.72 1013.72 1014.12 1014.44 1014.48 1014.56 1014.92 1015.12 1015.28 1015.32 1015.44 1015.80 1016.20 1016.48 1016.56 1016.60 1016.64 1016.60 1016.76 1016.60 1016.64 1017.32 1017.76 1017.76 1017.76 1017.92 1017.80 1017.48 1017.12 1017.48 1017.68 1017.52 1017.48 1017.56 1017.68 1017.68 1017.64 1017.72 1017.76 1017.80 1017.92 1018.08 1018.20 1018.04 1018.04 1018.56 1018.32 1018.12 1017.76 1018.24 1018.68 1017.16 1017.28 1017.84 1017.32 1017.80 1017.80 1018.04 1018.36 1018.64
1013.80 1013.76 1013.68 1013.84 1014.08 1014.28 1014.48 1014.76 1015.08 1015.28 1015.28 1015.32 1015.44 1015.64 1016.00 1016.24 1016.36 1016.48 1016.80 1016.76 1016.72 1017.24 1017.52 1017.68 1017.44 1017.44 1017.84 1018.32 1018.24 1018.12 1017.56 1017.12 1017.16 1017.40 1017.52 1017.64 1017.64 1017.76 1017.84 1017.88 1017.88 1017.76 1017.92 1018.12 1018.36 1018.28 1018.24 1018.28 1018.20 1018.32 1018.04 1018.24 1018.72 1018.36 1017.64 1017.84 1017.12 1017.72 1017.88 1018.16 1018.40 1018.68
1013.64 1013.72 1013.76 1013.96 1014.08 1014.28 1014.52 1014.72 1014.96 1015.08 1015.12 1015.20 1015.36 1015.56 1015.76 1015.92 1016.24 1016.32 1016.40 1016.64 1017.24 1017.96 1018.32 1018.04 1017.44 1017.28 1017.28 1017.52 1017.76 1017.76 1017.80 1017.64 1017.28 1017.32 1017.44 1017.60 1017.76 1017.76 1017.88 1018.00 1018.04 1018.16 1018.32 1018.44 1018.56 1018.52 1018.48 1018.60 1018.64 1018.64 1018.44 1018.56 1019.28 1019.64 1018.88 1018.44 1017.80 1017.64 1017.80 1018.20 1018.48 1018.68
1013.52 1013.72 1013.92 1014.36 1014.40 1014.32 1014.44 1014.72 1014.88 1015.04 1015.08 1015.12 1015.16 1015.28 1015.44 1015.64 1015.84 1016.16 1016.84 1017.24 1017.32 1017.28 1017.48 1017.20 1017.12 1017.12 1017.12 1017.24 1017.48 1017.60 1017.52 1017.36 1017.32 1017.36 1017.52 1017.68 1017.92 1018.00 1017.92 1017.96 1018.04 1018.32 1018.44 1018.44 1018.40 1018.52 1018.60 1018.68 1018.72 1019.00 1019.20 1018.52 1018.68 1019.40 1019.24 1019.04 1018.80 1018.32 1018.40 1018.60 1018.60 1018.80
1013.68 1013.76 1013.80 1014.12 1014.36 1014.48 1014.68 1014.80 1014.88 1014.96 1015.16 1015.12 1015.12 1015.28 1015.48 1015.56 1015.64 1015.80 1016.12 1016.32 1016.40 1016.52 1016.64 1016.80 1016.92 1016.96 1017.12 1017.16 1017.28 1017.40 1017.28 1017.24 1017.44 1017.48 1017.68 1017.76 1017.80 1018.00 1018.04 1018.08 1018.16 1018.44 1018.72 1018.52 1018.44 1018.52 1018.56 1018.64 1018.80 1018.92 1019.24 1018.92 1019.08 1019.72 1019.80 1020.16 1020.36 1019.60 1019.04 1018.96 1018.96 1019.16
1014.28 1014.16 1014.16 1014.24 1014.36 1014.64 1014.84 1014.92 1015.04 1015.08 1015.12 1015.08 1015.20 1015.36 1015.52 1015.60 1015.72 1016.04 1016.40 1016.64 1016.44 1016.52 1016.64 1016.76 1016.80 1016.84 1017.04 1017.04 1017.28 1017.24 1017.28 1017.32 1017.36 1017.44 1017.64 1017.68 1017.76 1017.80 1017.88 1018.04 1018.20 1018.24 1018.40 1018.56 1018.48 1018.64 1018.68 1018.60 1018.72 1018.60 1018.72 1018.76 1019.16 1019.24 1018.96 1019.16 1020.12 1020.08 1019.56 1019.36 1019.32 1019.68
1014.20 1014.80 1015.24 1014.84 1014.76 1015.00 1014.96 1015.00 1015.08 1015.16 1015.12 1015.16 1015.28 1015.32 1015.40 1015.44 1015.68 1015.88 1016.08 1016.52 1016.60 1016.64 1016.72 1016.84 1016.84 1016.88 1016.96 1016.96 1017.08 1017.16 1017.36 1017.44 1017.44 1017.44 1017.64 1017.64 1017.68 1017.68 1017.76 1017.88 1018.12 1018.12 1018.28 1018.44 1018.64 1018.80 1018.64 1018.52 1018.36 1018.36 1018.32 1018.60 1018.96 1019.24 1019.28 1019.16 1019.88 1020.08 1019.28 1019.16 1019.04 1019.32
1014.60 1014.96 1015.24 1015.16 1015.08 1014.96 1014.92 1014.84 1014.84 1014.92 1015.08 1015.12 1015.12 1015.20 1015.28 1015.44 1015.56 1015.80 1016.12 1016.28 1016.36 1016.56 1016.68 1016.84 1016.84 1016.84 1017.08 1017.04 1017.12 1017.20 1017.40 1017.52 1017.44 1017.56 1017.64 1017.72 1017.68 1017.72 1017.76 1017.80 1018.04 1018.20 1018.24 1018.36 1018.52 1018.52 1018.60 1018.52 1018.44 1018.44 1018.64 1018.80 1019.04 1019.32 1019.16 1019.24 1019.52 1019.88 1019.96 1019.92 1019.68 1019.80
1014.08 1014.40 1014.40 1014.84 1015.36 1015.80 1015.36 1015.16 1015.32 1015.12 1015.16 1015.12 1015.24 1015.32 1015.32 1015.48 1015.56 1015.76 1015.88 1016.08 1016.24 1016.32 1016.52 1016.64 1016.76 1016.84 1016.96 1017.00 1017.12 1017.36 1017.52 1017.48 1017.56 1017.64 1017.72 1017.76 1017.80 1017.76 1017.92 1017.96 1018.08 1018.16 1018.40 1018.44 1018.32 1018.48 1018.52 1018.64 1018.68 1018.84 1018.76 1018.80 1019.00 1019.08 1019.16 1019.20 1019.20 1019.52 1020.00 1020.08 1019.72 1019.44
1013.76 1013.72 1014.00 1014.04 1014.32 1014.72 1015.12 1015.24 1015.16 1015.24 1015.40 1015.24 1015.36 1015.40 1015.44 1015.52 1015.64 1015.80 1015.80 1015.96 1016.16 1016.32 1016.44 1016.52 1016.60 1016.72 1016.84 1016.96 1017.12 1017.28 1017.36 1017.52 1017.60 1017.60 1017.68 1017.64 1017.60 1017.68 1017.76 1017.80 1017.96 1018.12 1018.36 1018.60 1018.68 1018.52 1018.64 1018.56 1018.84 1019.08 1018.92 1019.08 1019.16 1019.08 1019.28 1019.32 1019.44 1019.40 1019.56 1019.76 1020.16 1020.08
1013.96 1013.96 1013.88 1014.00 1014.24 1014.40 1014.48 1014.76 1014.96 1015.16 1015.08 1015.16 1015.44 1015.56 1015.88 1015.92 1016.00 1016.04 1016.08 1016.20 1016.28 1016.40 1016.48 1016.56 1016.56 1016.60 1016.76 1017.00 1017.40 1017.56 1017.56 1017.64 1017.60 1017.60 1017.60 1017.56 1017.56 1017.60 1017.68 1017.84 1018.00 1018.28 1018.24 1018.52 1018.80 1018.52 1018.60 1018.64 1019.20 1019.32 1019.72 1019.72 1019.64 1019.48 1019.40 1019.44 1019.44 1019.36 1019.24 1019.44 1020.24 1020.68
1014.20 1014.12 1014.24 1014.28 1014.36 1014.72 1014.40 1014.32 1014.56 1014.68 1014.76 1015.00 1014.84 1015.04 1015.48 1015.80 1015.88 1016.16 1016.24 1016.32 1016.40 1016.36 1016.40 1016.48 1016.44 1016.48 1016.64 1016.92 1017.16 1017.36 1017.56 1017.52 1017.44 1017.44 1017.60 1017.72 1017.68 1017.80 1017.88 1018.04 1018.16 1018.36 1018.68 1018.56 1018.72 1018.48 1018.48 1018.52 1019.24 1019.16 1019.32 1019.72 1020.36 1020.52 1020.00 1019.76 1019.56 1019.48 1019.32 1019.36 1019.92 1020.52
1014.36 1014.40 1014.56 1014.60 1014.64 1014.60 1014.48 1014.36 1014.32 1014.52 1014.64 1014.84 1015.36 1015.40 1015.60 1015.72 1015.96 1016.12 1016.32 1016.28 1016.44 1016.40 1016.32 1016.32 1016.20 1016.28 1016.60 1016.80 1016.88 1017.04 1017.28 1017.56 1017.56 1017.48 1017.56 1017.64 1017.68 1017.84 1017.88 1018.08 1018.20 1018.36 1018.44 1019.04 1018.84 1018.72 1018.36 1018.56 1018.84 1019.28 1020.24 1020.12 1020.36 1020.32 1020.64 1020.32 1020.16 1019.80 1019.28 1019.28 1019.84 1020.48
1014.44 1014.60 1014.68 1014.80 1014.80 1014.60 1014.56 1014.72 1014.56 1014.72 1014.92 1015.24 1015.40 1015.72 1016.00 1016.24 1016.12 1016.20 1016.36 1016.48 1016.64 1016.48 1016.52 1016.56 1016.44 1016.48 1016.60 1016.80 1016.80 1016.88 1017.04 1017.32 1017.56 1017.60 1017.52 1017.56 1017.60 1017.60 1017.72 1017.88 1018.00 1018.24 1018.48 1018.68 1018.96 1018.88 1018.76 1018.64 1018.80 1018.80 1019.36 1020.08 1020.52 1020.56 1020.52 1020.16 1020.04 1020.20 1019.60 1020.04 1020.28 1020.68
1014.40 1014.56 1014.76 1014.84 1014.72 1014.64 1015.00 1015.28 1015.04 1015.56 1016.12 1016.28 1016.60 1016.56 1016.76 1016.72 1016.64 1016.60 1016.64 1016.48 1016.48 1016.48 1016.56 1016.60 1016.64 1016.72 1016.68 1016.72 1016.80 1016.76 1016.84 1017.16 1017.44 1017.60 1017.64 1017.68 1017.60 1017.60 1017.80 1017.92 1017.96 1018.20 1018.44 1018.44 1018.60 1018.80 1019.08 1018.72 1018.72 1018.88 1018.92 1019.20 1019.48 1020.16 1020.12 1019.80 1019.92 1021.32 1020.28 1020.28 1020.44 1020.48
1014.52 1014.68 1014.68 1014.72 1014.44 1014.36 1014.92 1015.04 1015.24 1015.56 1015.96 1016.28 1016.60 1016.48 1016.20 1016.24 1016.40 1016.48 1016.44 1016.68 1016.80 1016.72 1016.72 1016.80 1016.84 1016.84 1016.80 1016.80 1016.76 1016.76 1016.80 1016.92 1017.16 1017.24 1017.24 1017.36 1017.52 1017.48 1017.44 1017.68 1017.88 1017.96 1018.20 1018.28 1018.52 1019.00 1019.08 1019.04 1018.88 1018.88 1018.80 1018.96 1019.08 1019.20 1019.32 1019.80 1020.76 1020.68 1021.40 1020.72 1020.48 1020.84
1014.48 1014.64 1014.60 1014.24 1014.32 1014.48 1014.60 1014.96 1015.40 1015.68 1015.84 1016.08 1016.28 1016.52 1016.40 1016.44 1016.36 1016.52 1016.76 1016.92 1016.92 1016.88 1016.80 1016.80 1016.84 1016.80 1016.76 1016.84 1016.80 1016.88 1016.88 1016.92 1016.96 1017.08 1017.12 1017.28 1017.52 1017.48 1017.52 1017.64 1017.68 1017.76 1017.92 1018.16 1018.36 1018.72 1018.96 1019.04 1019.36 1019.44 1018.96 1019.04 1019.12 1019.20 1019.16 1019.24 1019.52 1020.04 1020.48 1021.48 1021.48 1021.28
1014.24 1014.48 1014.52 1014.16 1014.48 1014.20 1014.36 1015.04 1015.64 1015.76 1015.96 1015.96 1016.08 1016.32 1016.36 1016.40 1016.64 1016.72 1017.08 1017.00 1016.92 1016.88 1016.88 1016.84 1016.76 1016.72 1016.68 1016.72 1016.88 1017.04 1017.12 1017.12 1017.12 1017.04 1017.00 1017.24 1017.44 1017.60 1017.76 1017.88 1017.88 1017.96 1018.24 1018.28 1018.24 1018.40 1018.68 1018.88 1018.92 1019.36 1019.40 1019.36 1019.40 1019.36 1019.40 1019.76 1019.88 1020.08 1020.80 1021.08 1021.80 1021.72
1014.04 1014.32 1014.40 1014.48 1014.48 1014.44 1014.92 1015.32 1015.68 1015.72 1015.92 1016.12 1016.16 1016.36 1016.48 1016.76 1016.88 1016.96 1017.16 1017.16 1017.12 1017.12 1017.16 1017.12 1017.04 1016.92 1016.80 1016.68 1016.84 1016.96 1017.16 1017.32 1017.28 1017.16 1017.16 1017.40 1017.64 1017.72 1017.76 1017.84 1017.88 1017.96 1018.08 1018.28 1018.24 1018.36 1018.72 1018.76 1018.88 1018.96 1019.04 1019.16 1019.48 1019.48 1019.56 1019.84 1020.12 1020.04 1020.04 1020.08 1021.28 1021.88
1013.88 1014.16 1014.64 1014.88 1014.72 1014.96 1015.12 1015.36 1015.44 1015.56 1015.80 1016.08 1016.28 1016.56 1016.88 1017.04 1017.04 1017.08 1017.28 1017.32 1017.28 1017.24 1017.16 1017.32 1017.32 1017.28 1017.08 1017.00 1016.96 1017.00 1017.28 1017.44 1017.40 1017.32 1017.32 1017.44 1017.60 1017.72 1017.80 1017.88 1017.92 1017.96 1018.12 1018.28 1018.40 1018.44 1018.56 1018.68 1018.80 1018.92 1018.96 1018.96 1019.20 1019.36 1019.68 1020.04 1020.16 1020.12 1020.28 1020.64 1021.04 1021.48
1013.76 1014.24 1014.64 1014.80 1014.88 1015.08 1015.24 1015.28 1015.36 1015.44 1015.72 1015.96 1016.28 1016.72 1017.04 1017.24 1017.16 1017.20 1017.24 1017.32 1017.20 1017.24 1017.40 1017.44 1017.52 1017.52 1017.44 1017.28 1017.32 1017.40 1017.44 1017.52 1017.64 1017.64 1017.64 1017.52 1017.60 1017.68 1017.80 1017.92 1018.00 1018.12 1018.24 1018.24 1018.32 1018.44 1018.56 1018.72 1018.76 1018.72 1018.72 1018.76 1018.96 1019.08 1019.28 1019.48 1019.64 1019.76 1020.16 1020.40 1020.64 1021.20
1013.80 1014.20 1014.52 1014.60 1014.80 1015.04 1015.16 1015.20 1015.32 1015.40 1015.64 1015.88 1016.28 1016.56 1016.92 1017.08 1017.00 1017.12 1017.12 1017.20 1017.36 1017.52 1017.52 1017.72 1017.76 1017.76 1017.64 1017.52 1017.52 1017.64 1017.76 1017.88 1017.92 1017.84 1017.76 1017.68 1017.68 1017.76 1017.88 1018.00 1018.16 1018.24 1018.32 1018.48 1018.56 1018.60 1018.72 1018.68 1018.56 1018.60 1018.60 1018.40 1018.52 1018.72 1018.92 1018.88 1019.12 1019.48 1019.64 1020.04 1020.32 1020.88
1013.48 1013.84 1014.08 1014.36 1014.64 1014.96 1015.00 1015.00 1015.00 1015.32 1015.60 1015.92 1016.28 1016.48 1016.72 1016.92 1016.92 1016.96 1017.00 1017.16 1017.28 1017.40 1017.60 1017.80 1017.84 1017.84 1017.64 1017.64 1017.68 1017.72 1017.80 1017.92 1017.92 1017.96 1017.92 1017.84 1017.80 1017.80 1017.92 1018.12 1018.32 1018.44 1018.56 1018.56 1018.56 1018.68 1018.72 1018.68 1018.56 1018.52 1018.44 1018.64 1018.68 1018.68 1018.60 1018.64 1018.96 1019.32 1019.52 1019.64 1019.72 1019.84
1013.56 1013.80 1013.96 1014.12 1014.36 1014.64 1014.84 1014.92 1015.00 1015.16 1015.48 1015.76 1016.12 1016.36 1016.56 1016.64 1016.80 1016.92 1016.96 1017.12 1017.12 1017.24 1017.56 1017.72 1017.80 1017.76 1017.68 1017.76 1017.80 1017.84 1017.88 1018.00 1018.00 1018.04 1018.00 1018.00 1017.96 1018.00 1018.12 1018.28 1018.44 1018.56 1018.60 1018.64 1018.72 1018.76 1018.84 1018.80 1018.80 1018.68 1018.64 1018.68 1018.72 1018.72 1018.76 1018.64 1018.68 1018.88 1018.76 1018.96 1019.20 1019.36
1013.36 1013.76 1014.04 1014.24 1014.40 1014.56 1014.76 1014.88 1015.04 1015.32 1015.52 1015.68 1015.92 1016.16 1016.40 1016.52 1016.64 1016.68 1016.92 1017.00 1017.12 1017.28 1017.44 1017.64 1017.72 1017.80 1017.80 1017.80 1017.88 1017.92 1017.96 1018.04 1018.00 1018.00 1018.00 1018.04 1018.12 1018.20 1018.24 1018.36 1018.48 1018.56 1018.72 1018.60 1018.80 1018.88 1018.92 1018.88 1018.92 1018.84 1018.84 1018.80 1018.92 1019.04 1018.88 1018.80 1018.68 1018.68 1018.72 1018.76 1018.64 1018.96
1013.76 1014.00 1014.24 1014.36 1014.40 1014.52 1014.68 1014.88 1015.12 1015.32 1015.56 1015.72 1015.88 1016.12 1016.36 1016.52 1016.64 1016.68 1016.80 1016.88 1017.08 1017.24 1017.44 1017.64 1017.80 1017.76 1017.84 1017.80 1017.84 1017.92 1018.08 1018.12 1018.16 1018.12 1018.12 1018.16 1018.16 1018.24 1018.32 1018.44 1018.60 1018.68 1018.84 1018.76 1018.84 1018.96 1018.96 1019.08 1019.04 1018.96 1018.96 1019.08 1019.20 1019.20 1019.16 1019.00 1018.88 1018.84 1018.76 1018.64 1018.60 1018.68
Wind_Speed
7 7 6 8 8 9 9 10 5 10 13 14 13 12 11 10 9 9 9 9 8 5 4 4 4 4 7 5 3 6 6 7 7 7 7 7 6 6 5 3 3 4 4 5 5 7 6 7 6 5 6 9 9 5 6 7 4 4 9 7 8 7
7 7 7 6 6 7 7 8 7 6 7 10 10 10 7 6 8 5 7 4 3 4 3 1 1 6 2 5 5 6 6 7 7 7 8 8 7 6 5 4 3 5 5 5 6 3 5 6 8 7 7 7 5 5 6 6 0 4 9 7 7 8
6 6 8 8 6 8 9 7 7 6 6 9 7 6 5 6 4 5 4 4 4 3 2 2 1 3 3 3 5 6 7 7 8 7 7 7 7 6 5 3 4 5 5 7 4 4 5 5 5 10 8 5 4 5 7 2 2 6 8 7 6 12
11 7 7 7 6 7 7 7 5 5 6 5 5 5 5 4 5 3 5 3 3 2 2 2 2 3 4 2 3 5 6 6 8 7 7 5 6 6 5 5 5 5 4 3 3 5 5 4 4 4 4 4 5 6 5 2 2 6 8 8 8 12
12 11 10 7 7 6 7 7 6 4 5 6 5 4 4 4 5 4 5 2 2 2 3 3 2 2 2 0 1 3 3 3 3 4 6 3 3 4 4 3 3 4 3 4 6 6 6 6 4 5 6 6 7 7 3 4 2 6 6 7 8 12
11 9 7 6 7 7 9 7 7 6 4 5 5 5 5 3 4 3 3 2 2 2 2 3 2 2 1 2 3 1 1 1 1 1 4 1 1 1 4 3 0 1 2 3 5 8 7 6 3 3 4 4 3 1 2 3 6 7 6 6 8 13
8 8 9 8 8 7 7 6 6 6 5 5 6 6 3 4 4 5 4 4 4 3 3 3 2 2 2 5 3 2 1 1 0 1 0 2 1 2 3 2 2 2 4 5 6 9 10 13 7 4 2 3 1 2 2 7 3 6 5 6 7 13
8 8 8 9 9 8 7 8 6 5 6 6 8 9 7 4 4 5 5 4 1 3 4 4 3 3 3 2 1 1 0 1 2 3 1 1 1 1 1 1 1 1 2 3 4 5 6 8 14 7 5 3 5 3 4 7 0 4 5 6 6 9
8 8 6 7 8 7 7 7 8 8 6 7 6 5 5 5 4 3 4 5 3 2 1 3 3 4 3 2 0 1 1 1 2 1 1 1 1 0 1 0 1 0 1 1 1 2 2 5 10 12 5 6 3 2 5 6 5 5 5 6 5 7
6 6 5 5 5 7 6 7 6 5 5 6 5 6 7 5 4 3 0 2 5 3 0 1 2 1 3 1 2 1 2 2 1 1 2 1 0 0 0 0 0 1 2 3 2 2 1 3 6 11 8 6 3 2 4 4 3 4 4 5 5 6
8 6 5 6 6 6 6 6 5 4 5 5 6 6 6 5 4 4 4 1 3 2 2 2 2 2 1 1 2 4 3 1 1 1 1 1 0 0 0 0 0 0 1 1 1 1 3 1 2 9 10 8 5 2 7 1 2 3 4 5 5 5
6 8 8 8 6 6 6 7 6 4 3 3 5 5 5 5 5 4 5 6 3 1 0 3 5 4 3 2 4 5 3 3 4 2 1 1 1 1 1 1 1 0 1 1 0 1 2 3 2 5 4 7 10 2 7 7 6 4 3 5 6 5
6 4 6 7 6 6 5 6 5 5 4 4 4 4 6 6 4 5 5 4 6 3 3 6 5 4 6 9 8 6 4 3 1 2 2 3 3 2 1 1 1 1 1 0 1 1 1 1 3 5 5 7 9 11 7 3 4 5 4 5 5 6
7 7 5 3 3 5 5 5 4 3 3 4 3 5 5 5 5 6 5 6 7 8 10 9 6 3 2 3 4 4 4 4 2 2 2 1 0 1 1 2 1 1 1 1 0 1 2 2 2 4 6 5 3 8 5 3 4 5 4 5 4 5
7 6 6 5 5 4 5 4 4 4 3 2 3 2 3 3 5 6 7 10 11 10 9 6 5 3 2 3 2 1 3 4 3 2 1 2 2 1 1 1 3 1 0 1 2 3 3 3 4 6 5 7 6 10 5 7 7 5 6 5 4 5
8 6 4 5 3 5 5 3 2 4 2 2 2 3 2 2 2 3 4 4 3 2 4 5 7 5 3 3 5 3 2 2 3 3 2 2 2 2 2 1 2 1 0 0 1 2 2 2 2 1 3 5 6 7 5 3 8 6 6 4 4 4
12 9 3 2 2 4 2 3 3 3 2 2 2 2 3 2 3 3 5 3 2 2 2 4 4 4 3 2 3 3 2 2 2 3 3 3 3 2 2 3 2 1 1 1 2 3 2 2 1 3 5 4 4 2 4 5 6 3 5 5 4 3
10 13 8 4 3 2 1 4 4 3 2 3 3 2 3 3 4 5 4 5 3 3 2 4 2 2 1 2 2 2 1 2 2 1 2 2 2 2 2 1 2 2 2 2 1 0 0 1 2 3 3 3 3 1 3 2 6 4 4 2 4 4
7 8 11 10 5 2 1 2 2 4 3 3 3 3 3 2 4 5 5 5 4 6 5 6 3 1 2 2 3 2 2 2 2 1 0 1 1 2 2 2 0 3 4 1 1 0 2 1 3 2 3 3 2 1 1 1 0 6 3 2 3 4
8 6 7 10 10 7 4 3 3 3 2 2 4 2 3 4 2 5 3 5 3 3 5 3 5 5 3 2 3 3 3 3 2 2 2 2 2 1 1 2 2 1 3 2 1 2 0 1 4 2 2 0 0 1 1 2 2 6 6 6 3 4
4 3 5 5 6 5 5 4 3 3 3 2 4 2 2 3 3 3 2 5 5 4 3 3 4 3 1 2 2 1 3 4 2 2 2 1 1 1 2 1 3 2 2 2 2 1 1 1 3 1 0 0 1 2 2 3 2 1 5 5 6 4
5 3 5 5 5 4 3 4 4 3 3 3 4 2 4 4 4 3 3 4 4 3 4 4 3 3 4 3 4 1 2 2 4 3 3 1 1 1 1 2 2 2 1 2 1 1 1 2 1 1 1 1 0 1 2 1 1 2 3 6 10 5
5 5 5 5 4 2 2 3 2 2 2 3 3 4 5 4 4 4 3 3 2 2 3 4 4 4 4 4 4 5 3 2 2 2 2 3 2 2 1 3 2 2 2 1 1 1 1 2 2 1 1 1 0 1 1 2 2 2 2 2 8 9
7 6 5 3 3 2 4 3 2 3 7 5 6 5 4 3 4 3 3 3 2 2 2 1 2 5 4 2 1 3 5 5 4 2 2 2 2 3 3 3 2 1 2 2 1 1 0 2 2 1 1 1 1 0 1 2 2 0 1 0 7 10
8 7 5 3 3 3 6 6 3 7 5 5 5 3 3 3 2 3 3 2 2 2 3 2 3 4 3 3 2 2 3 4 3 2 0 1 2 3 4 3 4 4 3 2 2 1 1 0 2 0 2 2 1 0 0 2 2 2 4 4 6 9
7 6 6 6 5 7 5 4 5 6 5 4 3 1 1 2 2 2 3 2 2 2 2 1 4 4 3 3 2 1 0 5 5 4 3 1 2 3 3 2 2 2 2 2 3 2 1 1 3 3 1 2 0 0 1 1 0 2 3 3 5 7
8 6 5 5 7 8 5 5 5 3 1 1 2 0 2 1 3 5 3 3 3 1 2 3 3 3 3 3 3 2 0 3 5 3 4 2 2 0 3 4 6 3 1 4 2 1 1 1 2 3 1 1 2 2 1 0 2 3 2 3 2 6
7 6 4 5 5 6 7 5 2 1 2 3 2 3 2 3 3 4 3 3 1 2 2 2 4 5 4 4 3 3 4 4 2 3 4 3 3 4 4 4 4 3 4 5 3 3 2 1 2 2 1 1 1 1 2 2 3 1 2 4 4 7
8 6 6 6 4 6 7 3 2 2 1 2 5 3 3 2 2 2 3 3 1 2 3 3 3 2 4 6 7 4 3 1 2 0 5 4 5 5 4 3 3 4 4 3 3 3 2 1 3 2 1 1 2 1 1 4 0 3 3 5 4 6
10 7 4 4 4 5 4 1 2 3 3 4 4 3 3 3 3 2 2 2 3 3 3 2 3 4 4 3 6 6 3 3 3 3 5 7 5 3 3 4 4 4 5 5 3 4 3 2 2 2 1 2 2 1 2 3 3 1 3 3 6 5
10 8 5 3 5 5 2 2 3 2 5 4 3 3 3 3 3 1 2 2 2 2 2 4 3 3 3 4 5 5 5 3 2 4 4 4 3 4 3 3 4 4 4 4 4 4 4 4 4 3 2 1 3 2 2 2 2 1 2 3 6 4
11 10 8 7 7 6 4 4 2 4 4 4 3 3 3 3 3 2 2 2 2 3 3 3 3 2 2 3 4 5 4 3 4 3 3 3 4 4 4 4 4 4 4 4 4 4 3 3 3 4 4 3 4 4 3 3 2 3 4 2 3 4
13 12 11 10 10 8 6 4 4 5 4 4 3 3 3 3 2 3 2 2 3 3 3 3 2 2 1 3 2 3 4 4 3 3 3 2 4 5 4 3 5 4 4 4 4 4 4 4 3 3 3 3 4 3 4 5 5 3 0 3 5 6
15 13 13 12 11 9 7 6 6 6 5 5 3 4 3 3 2 2 2 2 2 3 4 3 2 2 2 3 3 3 3 3 3 3 3 3 4 4 4 5 5 4 5 4 4 4 4 4 4 4 3 6 4 3 3 4 4 7 5 4 4 4
10 11 13 13 11 11 8 7 6 6 7 5 4 4 3 3 2 2 2 3 2 4 5 3 3 2 3 3 3 3 3 3 3 3 3 3 4 5 5 5 4 4 4 4 5 5 4 4 4 4 5 3 4 6 6 5 5 4 3 3 3 2
15 13 12 12 10 10 8 7 6 7 7 5 6 4 3 3 2 2 3 2 3 4 4 4 3 3 3 3 3 4 3 3 3 2 2 3 4 4 4 4 3 3 4 3 4 4 4 3 4 4 4 4 5 5 5 6 4 5 6 5 1 3
11 10 11 11 10 8 8 7 8 6 6 5 6 5 4 4 3 2 2 2 3 4 5 4 4 3 3 3 3 4 4 3 3 4 4 3 3 3 4 4 4 4 4 4 4 4 4 4 4 4 4 6 5 4 4 4 4 5 5 5 4 3
Wind_Direction
115 132 109 85 92 103 132 140 111 117 122 120 120 127 131 127 131 140 142 140 143 142 122 127 154 135 142 143 140 136 141 136 139 142 142 139 134 139 155 170 200 232 238 223 234 241 242 229 222 218 248 268 284 302 276 280 79 98 104 105 107 114
133 146 125 118 131 129 132 128 149 144 129 128 130 134 136 133 133 132 134 113 80 55 41 56 88 134 140 129 134 149 152 148 146 148 145 142 143 149 147 170 212 244 259 261 258 263 246 244 232 217 227 240 275 264 273 273 117 113 102 106 111 126
147 159 138 137 133 129 132 144 141 149 145 137 135 139 137 126 126 137 109 72 63 54 25 33 350 121 105 147 137 160 159 155 157 158 154 149 150 149 162 184 234 252 276 289 283 254 247 205 209 221 218 224 236 250 251 235 287 94 104 110 112 132
151 162 146 134 131 136 141 132 142 159 145 133 153 143 133 137 112 92 76 57 60 127 100 40 117 115 123 91 131 155 155 157 160 165 161 157 158 170 177 209 243 257 271 269 253 256 257 226 196 175 202 223 229 244 233 213 215 109 110 117 127 138
157 159 150 135 138 146 132 137 160 172 140 149 169 141 125 124 122 126 98 87 135 135 136 123 89 66 22 9 184 172 163 177 170 175 173 189 182 182 199 207 213 226 233 246 244 241 239 247 184 183 193 210 220 219 199 194 0 101 103 114 134 141
158 152 132 132 142 145 141 156 156 171 149 153 140 133 91 122 113 109 100 134 172 134 90 79 92 76 71 345 280 332 199 78 238 144 197 351 327 243 205 246 342 359 308 317 328 322 315 296 247 209 204 215 251 175 207 78 102 91 101 115 141 142
157 140 135 148 149 146 147 138 149 157 157 169 132 102 170 176 143 134 139 180 176 119 105 79 79 42 167 213 215 201 142 188 257 13 149 100 276 318 357 6 2 357 352 341 349 350 342 323 319 293 262 211 207 231 94 42 357 106 110 127 141 141
153 144 143 154 149 153 135 141 134 170 165 155 144 149 164 165 149 146 155 182 132 108 121 101 105 194 255 243 166 170 156 147 167 223 117 201 220 192 288 24 29 335 338 345 1 17 6 317 310 298 297 246 174 219 129 124 311 93 121 122 142 145
144 145 136 147 153 145 143 141 153 167 161 152 135 133 146 138 140 177 156 138 127 110 81 127 144 180 175 251 31 353 183 198 196 199 165 184 209 201 216 176 189 266 195 157 332 54 43 338 303 295 271 290 205 186 69 132 143 127 126 134 144 149
122 119 142 163 145 143 144 145 153 152 137 146 135 144 140 135 149 161 236 114 107 88 134 134 157 146 122 209 141 280 276 195 169 154 160 202 71 85 218 95 87 296 298 54 43 43 211 189 279 294 292 246 281 177 126 106 147 131 121 145 129 147
133 152 186 163 139 138 148 150 135 131 150 145 139 140 130 131 147 154 148 74 102 197 99 342 269 176 129 186 156 178 239 44 85 224 231 161 93 245 342 0 254 93 8 54 115 231 238 141 232 293 316 318 311 101 105 34 167 126 126 124 127 139
152 158 170 150 126 146 153 146 133 135 142 127 135 136 129 133 162 150 141 125 121 335 36 297 247 213 138 44 339 306 266 178 178 183 197 79 159 166 246 277 280 24 71 56 313 312 9 337 313 304 294 342 292 229 128 152 193 115 143 125 124 134
162 124 144 141 138 142 136 131 133 145 153 148 145 132 144 148 151 135 140 129 118 182 206 251 250 222 157 171 185 194 228 272 246 145 147 178 174 150 152 262 252 61 55 32 283 297 333 66 331 321 335 5 332 311 32 178 169 139 152 117 123 118
158 149 142 107 111 125 135 129 143 147 152 160 163 159 156 150 154 152 139 150 178 178 197 208 222 187 221 146 149 179 188 195 196 151 146 101 47 69 181 212 136 92 295 228 261 14 28 19 21 341 345 46 281 286 276 309 176 144 123 114 97 122
160 145 139 132 155 147 113 129 145 150 141 186 161 137 137 156 157 139 157 188 190 180 170 179 155 166 231 135 156 118 217 171 160 154 130 116 121 180 308 3 43 3 289 339 9 39 30 23 17 12 338 345 357 329 338 -0 327 57 84 85 94 86
146 132 151 150 112 106 125 141 118 126 122 231 140 127 111 146 103 129 155 134 156 144 151 159 152 177 182 172 166 191 200 147 154 135 124 171 178 182 168 138 117 169 306 53 49 46 58 42 36 359 33 22 35 350 8 77 9 4 56 41 53 38
144 137 109 78 55 93 151 134 135 119 181 144 88 107 128 129 120 115 74 0 113 116 139 146 141 160 160 196 113 181 141 145 146 162 152 172 185 177 191 151 159 134 16 12 23 48 20 58 84 29 46 8 105 310 355 42 65 17 352 62 93 166
125 129 153 169 141 142 185 134 126 151 148 142 147 159 164 156 138 143 140 141 106 103 69 82 125 145 119 90 99 125 113 102 146 90 168 185 177 177 159 164 141 127 109 27 54 93 345 64 84 72 72 16 42 26 18 341 98 157 115 219 159 82
89 136 152 147 157 95 150 158 131 145 150 175 151 129 122 131 107 108 126 152 141 139 157 136 136 140 134 160 147 134 107 133 123 138 99 207 239 186 135 124 142 110 85 138 139 108 57 287 96 58 56 14 45 8 223 126 336 129 84 12 34 64
142 164 143 146 149 155 159 124 131 134 160 122 110 124 134 116 131 111 99 94 131 121 113 133 139 161 189 138 135 156 138 145 132 189 183 192 205 130 130 163 140 121 121 120 82 77 336 328 53 40 32 311 30 41 8 46 46 104 128 176 111 64
105 125 133 117 118 120 131 130 132 133 105 135 104 113 88 74 77 57 101 128 120 114 112 120 133 115 113 128 83 146 159 127 160 191 201 232 154 160 162 141 96 113 130 129 102 108 151 88 64 51 83 241 72 72 340 44 13 55 149 115 65 41
104 107 91 80 90 115 119 144 141 134 151 133 113 146 95 82 71 80 71 69 79 104 129 121 114 117 114 109 123 42 47 162 170 176 185 192 152 166 161 93 96 105 44 56 91 166 127 127 22 65 138 147 129 155 87 102 98 46 54 96 121 122
131 101 82 69 56 25 6 79 33 101 131 134 102 93 100 110 128 105 74 90 98 130 127 131 143 158 143 132 144 142 184 196 212 148 145 169 192 147 123 107 88 80 95 80 78 318 183 201 132 162 51 328 36 32 155 136 134 84 91 111 117 131
98 98 102 66 52 21 28 14 30 4 37 52 80 70 91 90 84 138 137 102 67 7 54 92 145 123 98 92 117 142 145 127 267 129 189 162 159 129 123 120 119 177 130 133 176 195 42 47 68 108 157 156 67 208 221 136 120 143 137 105 105 109
112 105 91 73 48 40 36 14 43 62 51 59 61 75 90 121 136 85 101 104 112 143 99 49 56 71 86 108 106 83 115 112 96 319 330 89 168 152 158 153 151 143 155 138 122 94 118 133 102 117 140 87 109 331 322 108 135 74 62 35 55 79
104 102 92 87 86 79 61 22 42 58 52 37 53 58 130 93 116 181 100 103 138 79 68 115 73 59 66 94 96 88 11 129 141 167 168 197 58 37 77 111 109 107 116 135 128 104 69 177 152 188 137 130 155 64 66 88 102 64 25 44 67 96
103 99 111 133 133 105 93 47 15 65 75 118 166 279 73 54 71 75 79 74 73 69 113 69 82 95 100 86 51 76 0 122 149 132 102 88 119 164 113 130 125 137 149 89 95 145 146 89 83 1 262 124 158 176 272 40 87 122 41 57 66 89
102 106 140 138 102 128 99 63 336 290 195 219 141 100 83 60 66 66 71 115 140 158 130 155 163 154 122 95 124 65 38 8 55 131 143 115 86 38 48 55 46 88 122 126 131 109 115 131 154 185 146 197 189 174 253 351 6 48 156 138 93 78
116 134 163 124 133 98 98 105 258 242 264 92 101 90 87 96 81 95 134 216 177 96 60 35 36 51 130 142 91 78 80 8 352 86 127 105 81 80 73 76 82 77 90 98 95 106 108 112 103 91 266 120 273 60 76 111 119 122 247 113 86 93
131 137 121 102 102 95 82 107 227 247 135 126 110 124 135 112 113 184 179 72 70 68 93 75 32 29 10 59 126 134 86 42 20 28 69 91 106 93 84 80 71 69 72 73 68 90 82 68 86 96 124 107 119 86 79 79 31 295 13 53 124 140
133 123 119 145 140 137 164 202 210 183 140 126 123 128 110 134 157 177 118 138 138 140 102 77 76 32 25 28 33 58 100 109 48 20 59 89 92 100 96 107 103 88 86 92 95 95 116 102 107 130 137 162 93 95 119 109 179 147 98 103 119 139
134 139 154 168 154 172 195 182 204 156 135 129 142 133 146 173 175 159 153 177 122 105 91 95 70 48 55 59 52 74 63 52 46 40 42 62 105 113 107 76 68 84 81 81 84 71 67 103 141 160 163 164 137 140 155 139 138 95 131 157 102 138
154 156 167 169 171 183 181 167 176 148 138 139 152 152 168 172 200 152 175 133 132 119 123 115 107 125 125 88 68 69 81 65 45 37 40 46 92 94 82 93 98 78 81 85 72 74 65 51 41 45 68 59 110 137 154 150 130 110 137 142 149 174
161 166 169 168 174 175 178 173 158 151 147 143 162 162 170 178 186 144 185 133 153 138 127 102 116 105 100 96 85 71 74 99 108 90 71 43 37 69 90 81 62 76 77 64 60 66 73 55 37 36 55 75 49 42 41 86 104 154 173 168 145 147
157 171 169 172 170 170 167 174 160 150 146 152 156 160 173 161 165 157 133 175 159 123 116 134 121 106 97 104 112 104 93 79 79 113 106 64 63 71 78 88 102 102 92 104 103 81 63 61 46 36 43 70 67 42 24 27 67 12 125 146 165 141
169 168 170 168 169 162 164 162 152 146 153 159 147 157 158 144 159 138 161 183 133 120 121 114 113 125 110 102 113 126 128 124 127 109 100 93 84 74 70 72 70 68 74 69 81 92 89 71 54 39 40 58 62 49 34 22 27 29 32 341 103 51
155 155 164 167 160 162 157 153 154 155 154 152 158 162 157 156 142 166 169 147 126 120 112 117 135 134 136 152 113 92 91 89 75 74 90 111 108 106 105 100 97 88 82 82 87 82 80 78 57 43 55 58 59 47 68 38 20 27 358 2 40 56